[[{"header":{"parameterUnit":"m.s-1","parameterCategory":2,"la1":30.2991,"la2":30.254,"lo1":-89.0895,"lo2":-89.0444,"dy":0.0017,"dx":0.0017,"nx":28,"ny":28,"refTime":"2024-09-27T21:00:00:Z","depth":"0","parameterNumber":2,"parameterNumberName":"U-component_of_CURRENTS"},"data":[0,0,0,0,0,0,0,0,0,0,0,0,0,0,0,0,0,0,0,0,0,0,0,0,0,0,0,0,0,0,0,0,0,0,0,0,0,0,0,0,0,0,0,0,0,0,0,0,0,0,0,0,0,0,0,0,0,0,0.1367,0.1367,0,0.139,0.139,0.139,0.1376,0.1376,0.1375,0.1375,0.1386,0.1387,0.1388,0,0,0,0,0,0,0,0,0,0,0,0,0,0.1307,0.1308,0.1367,0.1367,0.1367,0.139,0.139,0.139,0.1376,0.1376,0.1375,0.1374,0.1386,0.1387,0.1388,0,0,0,0,0,0,0,0,0,0,0,0,0,0.1331,0.1309,0.1366,0.1364,0.1364,0.139,0.139,0.139,0.1376,0.1376,0.1375,0.1374,0.1385,0.1387,0.1388,0.1412,0,0,0.1392,0.1392,0,0,0,0,0,0,0,0,0.1329,0.1333,0.1364,0.1364,0.1364,0.138,0.1373,0.1397,0.1377,0.137,0.1375,0.1374,0.1385,0.1386,0.139,0.1413,0.1413,0.1392,0.1393,0.1393,0.1393,0,0,0,0,0,0,0,0.1328,0.1332,0.1374,0.1365,0.1365,0.1361,0.1363,0.1378,0.1381,0.1371,0.137,0.1375,0.1384,0.1389,0.139,0.1413,0.1392,0.1393,0.1394,0.1394,0.1487,0.1489,0,0,0,0,0,0,0.1329,0.133,0.1374,0.1375,0.1346,0.1363,0.1365,0.1375,0.1381,0.1381,0.1376,0.1374,0.1387,0.1389,0.1391,0.1477,0.1393,0.1394,0.1395,0.1485,0.1488,0.1489,0,0,0,0,0,0,0.1328,0.1333,0.1373,0.1354,0.1359,0.1365,0.1376,0.1376,0.1385,0.1385,0.1385,0.1386,0.1387,0.1389,0.1423,0.1475,0.1395,0.1396,0.1483,0.1486,0.1488,0.1613,0,0,0,0,0,0,0.1326,0.1332,0.1342,0.1354,0.136,0.1402,0.1377,0.1377,0.139,0.1389,0.1393,0.1393,0.1386,0.1421,0.1424,0.1475,0.1397,0.1481,0.1485,0.1488,0.1606,0.1619,0.163,0,0,0,0,0,0.1324,0.135,0.1343,0.1348,0.1373,0.1404,0.1407,0.1406,0.1392,0.1409,0.1414,0.1393,0.1443,0.1424,0.1427,0.148,0.148,0.1484,0.1487,0.1601,0.1617,0.163,0,0,0,0,0,0,0.1328,0.1351,0.1344,0.1374,0.139,0.1402,0.1424,0.1414,0.1431,0.1431,0.1419,0.1421,0.1469,0.1453,0.1432,0.1513,0.1457,0.1462,0.1542,0.1557,0.1568,0.1623,0.1398,0,0,0,0,0,0.1333,0.1359,0.1374,0.1397,0.1413,0.1416,0.1428,0.1427,0.1442,0.1448,0.1452,0.146,0.1488,0.1504,0.1516,0.1565,0.1586,0.1597,0.1609,0.1619,0.1665,0.174,0.1765,0.1502,0.1502,0.1502,0,0,0.1337,0.1356,0.1367,0.14,0.1415,0.146,0.1422,0.1452,0.1489,0.1448,0.1502,0.1501,0.1507,0.1565,0.1585,0.156,0.1702,0.1624,0.1633,0.1674,0.1747,0.1773,0.1796,0.1505,0.1504,0.1504,0,0,0.1369,0.1383,0.1417,0.1445,0.1476,0.1492,0.1504,0.1523,0.1534,0.1579,0.1566,0.1613,0.1627,0.1669,0.1685,0.1772,0.1758,0.1751,0.1868,0.194,0.1964,0.1984,0.2036,0.2061,0.1762,0.1763,0.1763,0,0.1371,0.1419,0.1431,0.148,0.1513,0.1514,0.1564,0.1589,0.1614,0.1645,0.161,0.1693,0.1695,0.1801,0.1835,0.1808,0.1829,0.1814,0.196,0.1981,0.2,0.2049,0.2074,0.1769,0.1768,0.1768,0.1767,0,0.1434,0.1475,0.1506,0.1573,0.1611,0.1656,0.1694,0.1728,0.1736,0.1765,0.1849,0.1863,0.1917,0.1922,0.1913,0.205,0.2014,0.1963,0.1932,0.2035,0.2078,0.2103,0.1778,0.1776,0.1774,0.1772,0,0,0.1425,0.1528,0.1536,0.1576,0.1662,0.1693,0.178,0.1857,0.1915,0.1954,0.204,0.2115,0.2121,0.2143,0.2134,0.2214,0.2364,0.2159,0.216,0.2227,0.2518,0.2486,0.2509,0.2332,0.2337,0.2341,0.2491,0,0.1466,0.1563,0.1612,0.1707,0.1761,0.1809,0.189,0.1962,0.2014,0.2097,0.2155,0.2223,0.2203,0.2224,0.2316,0.2344,0.2436,0.2328,0.2396,0.2399,0.2372,0.254,0.2495,0.2625,0.2514,0.2518,0.2521,0,0.1508,0.157,0.1663,0.1771,0.18,0.1857,0.1977,0.2049,0.2181,0.2227,0.2332,0.2352,0.2497,0.2431,0.2608,0.2533,0.2561,0.2581,0.2586,0.2542,0.2415,0.2504,0.2673,0.264,0.2558,0.2555,0.2553,0,0.1485,0.1601,0.1671,0.1711,0.1838,0.1882,0.1952,0.2083,0.2146,0.2306,0.2355,0.2522,0.2564,0.2674,0.2718,0.2673,0.2884,0.2807,0.2816,0.2811,0.2785,0.277,0.2952,0.2956,0.2955,0.2955,0.2954,0,0.1509,0.1563,0.1655,0.1694,0.1769,0.1869,0.1959,0.2058,0.2197,0.2288,0.2407,0.2488,0.2624,0.2727,0.279,0.2898,0.2943,0.2905,0.2881,0.2821,0.2809,0.2783,0.2749,0.296,0.2959,0.2958,0.2957,0,0.1476,0.1543,0.1614,0.1727,0.1755,0.1803,0.1921,0.1993,0.2135,0.2251,0.2298,0.2482,0.2635,0.2752,0.2918,0.2955,0.3017,0.3079,0.2996,0.2961,0.2934,0.2908,0.292,0.285,0.3156,0.3157,0.3157,0,0.1475,0.1509,0.1597,0.1622,0.1665,0.1738,0.1791,0.1942,0.2014,0.2234,0.2282,0.2461,0.2576,0.2831,0.2956,0.311,0.302,0.3139,0.3065,0.3003,0.2955,0.2775,0.2701,0.3072,0.3072,0.3072,0.3072,0,0.1469,0.1486,0.1534,0.1574,0.1611,0.1665,0.1748,0.1787,0.1969,0.2078,0.2244,0.2359,0.2598,0.2767,0.2964,0.3049,0.3031,0.3137,0.3117,0.2982,0.2759,0.2653,0.2878,0.307,0.307,0.307,0.3071,0.3071,0.1444,0.145,0.1496,0.1531,0.1565,0.16,0.1621,0.1713,0.1818,0.1987,0.2142,0.232,0.2609,0.289,0.293,0.3057,0.2978,0.3075,0.3072,0.2911,0.2788,0.3009,0.3129,0.3129,0.313,0.313,0.3131,0,0.142,0.1433,0.1462,0.1491,0.1502,0.1543,0.1601,0.1625,0.1703,0.1901,0.2048,0.2384,0.2596,0.2805,0.3057,0.3036,0.2859,0.3016,0.2791,0.2739,0.3013,0.2955,0.2989,0.2989,0.2989,0.2989,0.2989,0.2989,0.1407,0.1416,0.1428,0.1431,0.1444,0.1445,0.1459,0.1505,0.1625,0.1837,0.2041,0.2227,0.2647,0.3007,0.3094,0.3029,0.2832,0.2736,0.2692,0.2942,0.2946,0.295,0.2891,0.2911,0.2911,0.2308,0.2304,0.2301]},{"header":{"parameterUnit":"m.s-1","parameterCategory":2,"la1":30.2991,"la2":30.254,"lo1":-89.0895,"lo2":-89.0444,"dy":0.0017,"dx":0.0017,"nx":28,"ny":28,"refTime":"2024-09-27T21:00:00:Z","depth":"0","parameterNumber":3,"parameterNumberName":"V-component_of_CURRENTS"},"data":[0,0,0,0,0,0,0,0,0,0,0,0,0,0,0,0,0,0,0,0,0,0,0,0,0,0,0,0,0,0,0,0,0,0,0,0,0,0,0,0,0,0,0,0,0,0,0,0,0,0,0,0,0,0,0,0,0,0,0.0187,0.0186,0,0.0098,0.0097,0.0095,0.0029,0.0028,0.0028,0.0028,-0.0052,-0.0054,-0.0055,0,0,0,0,0,0,0,0,0,0,0,0,0,0.023,0.023,0.0187,0.0186,0.0185,0.0098,0.0096,0.0095,0.0029,0.0028,0.0028,0.0028,-0.0051,-0.0053,-0.0056,0,0,0,0,0,0,0,0,0,0,0,0,0,0.0181,0.023,0.0187,0.0144,0.0139,0.0098,0.0096,0.0095,0.0029,0.0028,0.0028,0.0027,-0.0051,-0.0053,-0.0056,-0.0062,0,0,-0.0064,-0.0065,0,0,0,0,0,0,0,0,0.0184,0.0179,0.0151,0.0147,0.0141,0.0076,0.0082,0.0044,0.0029,0.0068,0.0028,0.0027,-0.0006,-0.0013,-0.0032,-0.0065,-0.0069,-0.0064,-0.0066,-0.0067,-0.0068,0,0,0,0,0,0,0,0.0187,0.0182,0.0149,0.015,0.0144,0.0105,0.0097,0.0074,0.0033,0.0065,0.006,0.0054,-0.0009,-0.0029,-0.0034,-0.007,-0.0064,-0.0067,-0.0068,-0.0069,-0.0125,-0.0125,0,0,0,0,0,0,0.0208,0.0186,0.0152,0.0147,0.0165,0.0105,0.0096,0.0096,0.0033,0.0024,0.0055,0.0052,-0.0024,-0.0031,-0.0037,-0.0029,-0.0067,-0.007,-0.0071,-0.0125,-0.0125,-0.0125,0,0,0,0,0,0,0.0209,0.0206,0.0156,0.0166,0.0157,0.0105,0.0104,0.0094,0.0076,0.0026,0.0016,0.0048,-0.0025,-0.0033,-0.0056,-0.0034,-0.0071,-0.0073,-0.0125,-0.0125,-0.0125,-0.0025,0,0,0,0,0,0,0.0211,0.0207,0.0213,0.0168,0.0157,0.0145,0.0105,0.0093,0.0075,0.0069,0.0017,0.0009,-0.0026,-0.0052,-0.0059,-0.0038,-0.0075,-0.0126,-0.0125,-0.0125,-0.0029,-0.0022,-0.0016,0,0,0,0,0,0.0213,0.0233,0.0213,0.0209,0.0167,0.0146,0.0137,0.0096,0.0075,0.0076,0.0035,0.0011,-0.0055,-0.0054,-0.0062,-0.0041,-0.0126,-0.0125,-0.0125,-0.0031,-0.0023,-0.0016,0,0,0,0,0,0,0.0258,0.0227,0.0205,0.0214,0.0186,0.0136,0.0135,0.0104,0.0071,0.0065,0.0014,0.0003,-0.0012,-0.0043,-0.004,-0.006,-0.0095,-0.0096,-0.0021,-0.0013,-0.0007,0.0045,-0.0078,0,0,0,0,0,0.027,0.0273,0.0235,0.0242,0.0233,0.0183,0.0169,0.0141,0.0105,0.0089,0.0055,0.0014,-0.0018,-0.0028,-0.0063,-0.0066,-0.0093,-0.0062,-0.0055,-0.0049,-0.0015,-0.0062,-0.0056,-0.0124,-0.0124,-0.0124,0,0,0.0288,0.0272,0.0273,0.0251,0.0224,0.0225,0.0173,0.016,0.016,0.0088,0.0082,0.0035,-0.0017,-0.0027,-0.0036,-0.0047,-0.0043,-0.0049,-0.0043,-0.0011,-0.0061,-0.0054,-0.0048,-0.0124,-0.0124,-0.0124,0,0,0.0328,0.0314,0.0327,0.0311,0.0282,0.0258,0.026,0.0217,0.0198,0.0183,0.0128,0.0104,0.0055,0.003,0.0008,0.0032,-0.0013,0.001,0.0096,0.0049,0.0055,0.006,0.0045,0.0048,0.0021,0.0021,0.0021,0,0.0346,0.0362,0.0328,0.0336,0.0339,0.0282,0.0302,0.0275,0.023,0.0234,0.0196,0.014,0.009,0.009,0.0092,0.0052,0.0022,0.0074,0.0061,0.0065,0.0068,0.0051,0.0053,0.0026,0.0025,0.0025,0.0024,0,0.039,0.0403,0.0414,0.041,0.041,0.0418,0.0386,0.0375,0.0348,0.0331,0.0322,0.0252,0.0225,0.0197,0.0153,0.0158,0.0128,0.0069,0.005,0.0082,0.0061,0.0061,0.0033,0.0031,0.003,0.0028,0,0,0.0424,0.0442,0.0444,0.0463,0.0453,0.0459,0.0469,0.0475,0.0497,0.045,0.0481,0.0417,0.0386,0.0359,0.0295,0.0264,0.0251,0.0189,0.0184,0.0193,0.0169,0.0153,0.0151,0.018,0.0181,0.0181,0.015,0,0.0465,0.0513,0.0511,0.0561,0.0587,0.056,0.0584,0.0582,0.0572,0.0585,0.0529,0.0522,0.0443,0.0426,0.0387,0.0282,0.0255,0.0268,0.0123,0.012,0.0115,0.0152,0.0133,0.0103,0.0149,0.0149,0.0149,0,0.05,0.0535,0.0598,0.0651,0.0662,0.0685,0.0727,0.0741,0.0747,0.0742,0.0735,0.0676,0.0642,0.0548,0.043,0.0437,0.0324,0.0242,0.0236,0.0195,0.0104,0.0073,0.0101,-0.0049,0.0149,0.0149,0.0149,0,0.0543,0.0594,0.0656,0.0669,0.0717,0.0745,0.0771,0.0795,0.083,0.0842,0.0859,0.081,0.0771,0.0643,0.0467,0.044,0.033,0.0258,0.015,0.0148,0.0095,0.0088,-0.0021,0.0175,0.0175,0.0175,0.0175,0,0.0585,0.0627,0.068,0.0713,0.0789,0.0808,0.089,0.0903,0.0951,0.1011,0.0943,0.0956,0.0784,0.0687,0.0525,0.0359,0.0366,0.0196,0.0143,0.0129,0.0125,-0.0039,-0.0123,0.0174,0.0174,0.0174,0.0174,0,0.06,0.0637,0.071,0.0784,0.081,0.0863,0.0954,0.1012,0.1046,0.1114,0.1115,0.1066,0.0937,0.0763,0.0559,0.0432,0.0182,0.0195,0.0213,0.0164,-0.0065,-0.0142,-0.0261,-0.0326,0.0096,0.0095,0.0095,0,0.0612,0.0653,0.0756,0.0805,0.0837,0.0918,0.098,0.1049,0.1113,0.1174,0.1205,0.1116,0.1062,0.0799,0.0537,0.0292,0.0137,0.0134,0.0077,-0.0048,-0.0175,-0.0215,-0.0263,0.0046,0.0045,0.0045,0.0044,0,0.0639,0.0674,0.0736,0.0842,0.0916,0.1007,0.1098,0.1163,0.1244,0.1297,0.1343,0.1311,0.1058,0.0812,0.0491,0.0309,0.004,0.0113,-0.0041,-0.0219,-0.0247,-0.0345,0.0058,0.0038,0.0039,0.0039,0.004,0.004,0.0656,0.0698,0.0791,0.0883,0.0974,0.1087,0.1172,0.1258,0.1367,0.1462,0.1435,0.1438,0.1101,0.0653,0.038,-0.0062,-0.0049,-0.019,-0.0268,-0.0292,-0.0365,0.0056,-0.0016,-0.0015,-0.0015,-0.0015,-0.0015,0,0.0687,0.0741,0.083,0.0963,0.1071,0.1111,0.1249,0.134,0.1456,0.1543,0.1582,0.147,0.1004,0.0576,-0.0026,-0.0358,-0.048,-0.0538,-0.0619,-0.065,-0.0305,-0.0319,-0.0431,-0.0431,-0.0431,-0.0431,-0.043,-0.043,0.0708,0.0793,0.0841,0.1025,0.1117,0.1264,0.1344,0.146,0.156,0.17,0.1761,0.1785,0.1534,0.0317,-0.0461,-0.0668,-0.091,-0.0977,-0.1066,-0.0867,-0.0841,-0.0816,-0.0849,-0.107,-0.1071,-0.1374,-0.1378,-0.138]}],[{"header":{"parameterUnit":"m.s-1","parameterCategory":2,"la1":30.2991,"la2":30.254,"lo1":-89.0895,"lo2":-89.0444,"dy":0.0017,"dx":0.0017,"nx":28,"ny":28,"refTime":"2024-09-27T21:00:00:Z","depth":"2","parameterNumber":2,"parameterNumberName":"U-component_of_CURRENTS"},"data":[0,0,0,0,0,0,0,0,0,0,0,0,0,0,0,0,0,0,0,0,0,0,0,0,0,0,0,0,0,0,0,0,0,0,0,0,0,0,0,0,0,0,0,0,0,0,0,0,0,0,0,0,0,0,0,0,0,0,0.1252,0.1252,0,0.1274,0.1274,0.1274,0.1267,0.1266,0.1266,0.1266,0.1281,0.1281,0.1282,0,0,0,0,0,0,0,0,0,0,0,0,0,0.1194,0.1195,0.1252,0.1252,0.1252,0.1274,0.1274,0.1274,0.1267,0.1266,0.1266,0.1265,0.1281,0.1281,0.1282,0,0,0,0,0,0,0,0,0,0,0,0,0,0.1216,0.1195,0.1252,0.1252,0.1253,0.1274,0.1274,0.1274,0.1267,0.1266,0.1266,0.1265,0.128,0.1281,0.1282,0.13,0,0,0.1286,0.1286,0,0,0,0,0,0,0,0,0.1215,0.1218,0.1252,0.1252,0.1253,0.1268,0.1259,0.1283,0.1267,0.126,0.1266,0.1265,0.1277,0.1278,0.1282,0.1301,0.1302,0.1286,0.1287,0.1287,0.1287,0,0,0,0,0,0,0,0.1214,0.1217,0.1259,0.1252,0.1253,0.1248,0.1251,0.1264,0.127,0.1261,0.126,0.1265,0.1277,0.1281,0.1282,0.1302,0.1286,0.1287,0.1288,0.1288,0.1372,0.1374,0,0,0,0,0,0,0.1215,0.1216,0.1258,0.126,0.1234,0.125,0.1253,0.1263,0.127,0.1271,0.1266,0.1265,0.1279,0.1281,0.1283,0.1365,0.1287,0.1288,0.1289,0.1371,0.1373,0.1374,0,0,0,0,0,0,0.1214,0.1219,0.1258,0.1239,0.1244,0.1252,0.1263,0.1263,0.1275,0.1274,0.1275,0.1277,0.1279,0.1281,0.1314,0.1363,0.1289,0.129,0.1369,0.1371,0.1374,0.1491,0,0,0,0,0,0,0.1212,0.1218,0.1229,0.1239,0.1245,0.1285,0.1263,0.1264,0.1279,0.1278,0.1285,0.1285,0.1279,0.1312,0.1315,0.1364,0.1291,0.1367,0.137,0.1373,0.1486,0.1498,0.1508,0,0,0,0,0,0.121,0.1235,0.1229,0.1235,0.1259,0.1287,0.129,0.1292,0.128,0.1297,0.1303,0.1285,0.1332,0.1315,0.1318,0.1368,0.1366,0.1369,0.1373,0.1481,0.1495,0.1507,0,0,0,0,0,0,0.1215,0.1237,0.1231,0.1261,0.1276,0.1286,0.1307,0.13,0.1317,0.1319,0.1308,0.1311,0.1357,0.1341,0.1322,0.1398,0.1345,0.1349,0.1426,0.144,0.1451,0.1519,0.1291,0,0,0,0,0,0.1221,0.1246,0.1259,0.1283,0.1297,0.1301,0.1312,0.1313,0.1327,0.1334,0.1339,0.1348,0.1373,0.1389,0.1399,0.1444,0.1467,0.1475,0.1486,0.1496,0.1552,0.1617,0.164,0.1386,0.1386,0.1386,0,0,0.1225,0.1244,0.1255,0.1286,0.13,0.1342,0.1307,0.1336,0.1371,0.1334,0.1388,0.1387,0.1391,0.1444,0.1463,0.144,0.1576,0.15,0.1509,0.1561,0.1623,0.1649,0.1671,0.1388,0.1388,0.1388,0,0,0.1255,0.127,0.1302,0.1329,0.1358,0.1373,0.1385,0.1404,0.1416,0.146,0.1448,0.1493,0.1506,0.1545,0.1559,0.1639,0.1628,0.1617,0.1742,0.1803,0.1826,0.1846,0.1897,0.1921,0.1629,0.1629,0.1629,0,0.1259,0.1304,0.1315,0.1361,0.1394,0.1395,0.1442,0.1466,0.1491,0.1525,0.1491,0.1575,0.1571,0.1674,0.1707,0.1673,0.1695,0.1691,0.1822,0.1843,0.1862,0.1909,0.1934,0.1635,0.1635,0.1634,0.1633,0,0.1316,0.1357,0.1386,0.1449,0.1485,0.1529,0.1565,0.1598,0.161,0.1643,0.1728,0.1738,0.1796,0.1794,0.1784,0.1917,0.1883,0.1824,0.1797,0.1895,0.1937,0.1961,0.1644,0.1642,0.164,0.1638,0,0,0.131,0.1406,0.1415,0.1456,0.1536,0.1568,0.1648,0.1727,0.1787,0.183,0.1921,0.1991,0.2005,0.2025,0.2012,0.2084,0.2226,0.2028,0.2029,0.2096,0.2365,0.2143,0.2147,0.2183,0.2188,0.2192,0.2338,0,0.1349,0.1443,0.1487,0.1582,0.1636,0.1682,0.1759,0.1832,0.1884,0.1972,0.2032,0.2103,0.2086,0.2109,0.2195,0.2202,0.2297,0.2193,0.2248,0.2251,0.2054,0.217,0.2071,0.2174,0.2361,0.2365,0.2368,0,0.1389,0.145,0.1542,0.1651,0.168,0.1737,0.1858,0.1926,0.2059,0.2105,0.2219,0.2244,0.2383,0.2319,0.2476,0.2404,0.2431,0.2441,0.2444,0.2225,0.2073,0.2106,0.221,0.2407,0.2404,0.2401,0.2399,0,0.1374,0.1488,0.1559,0.1599,0.1724,0.177,0.184,0.1968,0.2029,0.2192,0.2244,0.2409,0.2447,0.255,0.2556,0.2537,0.2686,0.2642,0.249,0.2473,0.2398,0.2364,0.2796,0.2796,0.2795,0.2795,0.2795,0,0.14,0.1457,0.1551,0.1593,0.1671,0.1768,0.1859,0.1955,0.2092,0.2182,0.2306,0.2378,0.2505,0.257,0.262,0.2606,0.2736,0.2564,0.2513,0.2426,0.2394,0.2594,0.2569,0.28,0.2799,0.2798,0.2797,0,0.1369,0.1438,0.1512,0.1629,0.166,0.1711,0.1829,0.1899,0.204,0.2153,0.2203,0.2371,0.2468,0.2547,0.2676,0.2622,0.2663,0.2624,0.2495,0.2424,0.2417,0.2396,0.2537,0.2531,0.2526,0.2521,0.2518,0,0.137,0.1408,0.1499,0.1527,0.1573,0.165,0.1702,0.1851,0.1918,0.2126,0.2169,0.2306,0.2359,0.2441,0.2455,0.2505,0.2565,0.2349,0.2294,0.2464,0.2401,0.2388,0.2374,0.2268,0.2263,0.2259,0.2255,0,0.1368,0.1387,0.1433,0.1481,0.1522,0.1573,0.1657,0.1691,0.1867,0.1951,0.2073,0.2136,0.2234,0.2224,0.2219,0.2227,0.233,0.2247,0.2524,0.228,0.2202,0.214,0.214,0.2215,0.2219,0.2222,0.2224,0.2226,0.1347,0.1348,0.1398,0.1437,0.1475,0.1506,0.1523,0.1601,0.1674,0.1808,0.1918,0.1984,0.2036,0.1995,0.1961,0.1948,0.2074,0.201,0.203,0.2054,0.1928,0.1837,0.1761,0.1763,0.1764,0.1765,0.1766,0,0.1322,0.1334,0.1367,0.1397,0.141,0.1456,0.1503,0.1504,0.1535,0.167,0.1753,0.1685,0.1688,0.1764,0.1699,0.1636,0.1699,0.1571,0.1693,0.1732,0.1767,0.1632,0.1385,0.1383,0.1382,0.1381,0,0,0.1306,0.1314,0.1323,0.1336,0.1354,0.1347,0.1353,0.1357,0.1423,0.1441,0.1497,0.166,0.1716,0.1551,0.1521,0.1456,0.1588,0.1407,0.172,0.1906,0.1939,0.2028,0.186,0,0,0,0,0]},{"header":{"parameterUnit":"m.s-1","parameterCategory":2,"la1":30.2991,"la2":30.254,"lo1":-89.0895,"lo2":-89.0444,"dy":0.0017,"dx":0.0017,"nx":28,"ny":28,"refTime":"2024-09-27T21:00:00:Z","depth":"2","parameterNumber":3,"parameterNumberName":"V-component_of_CURRENTS"},"data":[0,0,0,0,0,0,0,0,0,0,0,0,0,0,0,0,0,0,0,0,0,0,0,0,0,0,0,0,0,0,0,0,0,0,0,0,0,0,0,0,0,0,0,0,0,0,0,0,0,0,0,0,0,0,0,0,0,0,0.0107,0.0106,0,0.0018,0.0016,0.0015,-0.0044,-0.0044,-0.0045,-0.0045,-0.012,-0.0122,-0.0124,0,0,0,0,0,0,0,0,0,0,0,0,0,0.0158,0.0157,0.0107,0.0106,0.0105,0.0018,0.0016,0.0015,-0.0044,-0.0044,-0.0045,-0.0045,-0.0119,-0.0122,-0.0124,0,0,0,0,0,0,0,0,0,0,0,0,0,0.0107,0.0157,0.0107,0.0067,0.0063,0.0018,0.0016,0.0015,-0.0044,-0.0044,-0.0045,-0.0045,-0.0119,-0.0121,-0.0124,-0.0135,0,0,-0.0132,-0.0134,0,0,0,0,0,0,0,0,0.011,0.0105,0.0074,0.007,0.0065,-0.0,0.0007,-0.0034,-0.0044,-0.0006,-0.0045,-0.0045,-0.0077,-0.0083,-0.0103,-0.0139,-0.0142,-0.0133,-0.0134,-0.0136,-0.0136,0,0,0,0,0,0,0,0.0113,0.0108,0.0069,0.0073,0.0067,0.003,0.0023,-0.0002,-0.004,-0.0009,-0.0013,-0.0019,-0.008,-0.01,-0.0105,-0.0143,-0.0133,-0.0135,-0.0137,-0.0138,-0.0198,-0.0198,0,0,0,0,0,0,0.0133,0.0112,0.0072,0.0067,0.009,0.003,0.0021,0.0019,-0.0041,-0.0049,-0.0019,-0.0022,-0.0095,-0.0102,-0.0108,-0.0105,-0.0136,-0.0138,-0.014,-0.0198,-0.0198,-0.0198,0,0,0,0,0,0,0.0135,0.0131,0.0076,0.0089,0.0079,0.003,0.0027,0.0017,0.0001,-0.0048,-0.0057,-0.0025,-0.0096,-0.0104,-0.0127,-0.0109,-0.0139,-0.0142,-0.0198,-0.0198,-0.0198,-0.0111,0,0,0,0,0,0,0.0136,0.0132,0.0136,0.009,0.008,0.0062,0.0027,0.0016,-0.0001,-0.0006,-0.0055,-0.0063,-0.0097,-0.0122,-0.0129,-0.0113,-0.0144,-0.0198,-0.0198,-0.0198,-0.0114,-0.0108,-0.0103,0,0,0,0,0,0.0139,0.0154,0.0137,0.0132,0.0088,0.0063,0.0054,0.0016,-0.0001,-0.0002,-0.004,-0.0061,-0.0127,-0.0124,-0.0133,-0.0117,-0.0198,-0.0198,-0.0198,-0.0117,-0.011,-0.0104,0,0,0,0,0,0,0.0181,0.0148,0.0129,0.0134,0.0105,0.0054,0.0052,0.0024,-0.0008,-0.0012,-0.006,-0.007,-0.0087,-0.0116,-0.0112,-0.0137,-0.0167,-0.0168,-0.0102,-0.0096,-0.009,-0.0029,-0.0146,0,0,0,0,0,0.0193,0.0194,0.0154,0.0158,0.0148,0.01,0.0085,0.0059,0.0025,0.0009,-0.0023,-0.0061,-0.0094,-0.0105,-0.014,-0.0147,-0.0171,-0.0145,-0.0139,-0.0134,-0.0092,-0.0146,-0.0141,-0.0198,-0.0198,-0.0198,0,0,0.0209,0.0193,0.0192,0.0167,0.014,0.0137,0.009,0.0076,0.0073,0.0008,0.0,-0.0044,-0.0095,-0.0109,-0.0118,-0.0128,-0.0131,-0.0134,-0.0129,-0.0089,-0.0146,-0.014,-0.0135,-0.0198,-0.0198,-0.0198,0,0,0.0245,0.0229,0.024,0.0223,0.0193,0.0168,0.017,0.0127,0.0109,0.0092,0.0041,0.0017,-0.0031,-0.0059,-0.0082,-0.0064,-0.0106,-0.0086,0.0002,-0.0052,-0.0047,-0.0043,-0.0061,-0.0059,-0.0076,-0.0075,-0.0075,0,0.0264,0.0274,0.024,0.0245,0.0246,0.0191,0.0208,0.0178,0.0134,0.0141,0.0105,0.0053,-0.0001,-0.0004,-0.0004,-0.0047,-0.0075,-0.0017,-0.0042,-0.0039,-0.0036,-0.0056,-0.0055,-0.0071,-0.0072,-0.0072,-0.0073,0,0.0302,0.0311,0.032,0.0313,0.031,0.0315,0.028,0.0268,0.0244,0.023,0.0223,0.015,0.0129,0.0095,0.0052,0.0052,0.0026,-0.0035,-0.0051,-0.0024,-0.0048,-0.0048,-0.0065,-0.0067,-0.0068,-0.0069,0,0,0.0337,0.0347,0.0348,0.0368,0.035,0.0356,0.0357,0.0362,0.0385,0.034,0.0375,0.0307,0.0285,0.0259,0.0193,0.0156,0.0134,0.0084,0.0079,0.0084,0.0042,-0.005,-0.006,0.0059,0.006,0.006,0.002,0,0.0376,0.042,0.0412,0.0459,0.0483,0.0451,0.0469,0.0467,0.0456,0.0472,0.0417,0.0415,0.0339,0.0326,0.0281,0.0164,0.0136,0.0153,0.0003,0.0001,-0.0073,-0.0063,-0.0044,-0.0085,0.0019,0.0019,0.0019,0,0.0411,0.0444,0.0502,0.0552,0.0562,0.0583,0.0622,0.0631,0.0635,0.0631,0.0629,0.0577,0.0537,0.0446,0.0314,0.0325,0.0211,0.0121,0.0115,0.0009,-0.0093,-0.0098,-0.009,0.0018,0.0018,0.0018,0.0018,0,0.0463,0.0507,0.0568,0.0579,0.062,0.0648,0.0673,0.0692,0.0723,0.0736,0.0757,0.0706,0.0665,0.0532,0.0333,0.0323,0.0172,0.0119,-0.0053,-0.006,-0.0079,-0.0089,0.0037,0.0037,0.0038,0.0038,0.0038,0,0.0505,0.0548,0.0599,0.0632,0.071,0.0723,0.0804,0.0812,0.0856,0.0914,0.0849,0.0854,0.0678,0.0556,0.0386,0.0163,0.0202,-0.0013,-0.0078,-0.0051,-0.0058,-0.0,-0.0004,0.0036,0.0036,0.0037,0.0037,0,0.0524,0.0559,0.0632,0.0706,0.0733,0.0787,0.0874,0.0929,0.0961,0.1024,0.103,0.0965,0.0805,0.0609,0.0381,0.0217,0.0016,-0.0077,-0.0017,-0.0076,-0.0176,-0.0175,-0.0232,-0.0236,-0.0239,-0.0241,-0.0244,0,0.0536,0.0579,0.0681,0.0732,0.0763,0.0847,0.0905,0.097,0.1026,0.1078,0.1102,0.0994,0.0885,0.0535,0.0248,-0.0043,-0.0057,-0.0215,-0.0241,-0.0146,-0.0204,-0.0198,-0.0193,-0.0219,-0.0221,-0.0222,-0.0223,0,0.0565,0.0601,0.066,0.077,0.0845,0.0931,0.1018,0.1075,0.1149,0.117,0.1171,0.1094,0.0795,0.0486,0.0097,-0.0092,-0.0167,-0.0258,-0.0178,-0.0175,-0.0144,-0.0197,-0.0191,-0.0236,-0.0235,-0.0234,-0.0233,-0.0233,0.0585,0.0622,0.0717,0.081,0.0903,0.1007,0.1083,0.1143,0.121,0.1256,0.1194,0.1091,0.0786,0.0269,-0.003,-0.0294,-0.0296,-0.0388,-0.0378,-0.0368,-0.0381,-0.0361,-0.0492,-0.0492,-0.0492,-0.0492,-0.0493,0,0.0613,0.0667,0.0758,0.0888,0.0995,0.1037,0.1156,0.121,0.1259,0.1272,0.1234,0.0933,0.0579,0.0289,-0.0135,-0.0431,-0.0399,-0.0488,-0.0378,-0.0367,-0.0356,-0.0363,-0.0472,-0.0472,-0.0472,-0.0472,0,0,0.0633,0.0716,0.0762,0.0947,0.1041,0.117,0.1236,0.1284,0.1314,0.1279,0.1227,0.1073,0.0674,0.0371,-0.0008,-0.0218,-0.0209,-0.0254,-0.0252,-0.0069,-0.0053,-0.0297,-0.0297,0,0,0,0,0]}],[{"header":{"parameterUnit":"m.s-1","parameterCategory":2,"la1":30.2991,"la2":30.254,"lo1":-89.0895,"lo2":-89.0444,"dy":0.0017,"dx":0.0017,"nx":28,"ny":28,"refTime":"2024-09-27T21:00:00:Z","depth":"4","parameterNumber":2,"parameterNumberName":"U-component_of_CURRENTS"},"data":[0,0,0,0,0,0,0,0,0,0,0,0,0,0,0,0,0,0,0,0,0,0,0,0,0,0,0,0,0,0,0,0,0,0,0,0,0,0,0,0,0,0,0,0,0,0,0,0,0,0,0,0,0,0,0,0,0,0,0.0469,0.0469,0,0.0515,0.0516,0.0516,0.0557,0.0558,0.0558,0.0558,0.059,0.0591,0.0591,0,0,0,0,0,0,0,0,0,0,0,0,0,0.0416,0.0417,0.0469,0.0469,0.047,0.0515,0.0516,0.0517,0.0557,0.0558,0.0558,0.0559,0.059,0.0591,0.0591,0,0,0,0,0,0,0,0,0,0,0,0,0,0.0449,0.0417,0.0469,0.0495,0.0498,0.0515,0.0516,0.0517,0.0557,0.0558,0.0558,0.0559,0.059,0.0591,0.0591,0.0583,0,0,0.0593,0.0594,0,0,0,0,0,0,0,0,0.0447,0.045,0.0491,0.0494,0.0497,0.0531,0.0509,0.0538,0.0557,0.0535,0.0558,0.0559,0.0568,0.0571,0.0579,0.0584,0.0585,0.0594,0.0594,0.0594,0.0594,0,0,0,0,0,0,0,0.0444,0.0449,0.0488,0.0491,0.0495,0.0505,0.0511,0.0515,0.0547,0.0537,0.054,0.0544,0.057,0.0578,0.058,0.0586,0.0594,0.0594,0.0595,0.0595,0.0615,0.0615,0,0,0,0,0,0,0.0437,0.0447,0.0486,0.0489,0.0472,0.0505,0.0512,0.0519,0.0548,0.0553,0.0544,0.0546,0.0577,0.0579,0.0581,0.064,0.0594,0.0595,0.0595,0.0614,0.0615,0.0615,0,0,0,0,0,0,0.0436,0.044,0.0484,0.0468,0.0475,0.0506,0.0514,0.052,0.0551,0.0553,0.0558,0.0572,0.0577,0.058,0.0603,0.0639,0.0595,0.0596,0.0614,0.0614,0.0615,0.0713,0,0,0,0,0,0,0.0434,0.044,0.0444,0.0468,0.0475,0.0508,0.0514,0.052,0.0551,0.0556,0.0578,0.0581,0.0578,0.0602,0.0604,0.0639,0.0596,0.0614,0.0614,0.0615,0.071,0.0717,0.0723,0,0,0,0,0,0.0432,0.0441,0.0444,0.0449,0.048,0.0509,0.0514,0.0538,0.0552,0.0569,0.0584,0.0581,0.0604,0.0603,0.0605,0.0641,0.0614,0.0614,0.0615,0.0707,0.0716,0.0723,0,0,0,0,0,0,0.0428,0.0446,0.045,0.0466,0.0489,0.0516,0.0532,0.055,0.0576,0.0583,0.059,0.0593,0.0629,0.0608,0.0607,0.0641,0.0606,0.0606,0.0675,0.0683,0.0689,0.0642,0.0597,0,0,0,0,0,0.0425,0.0425,0.0456,0.0463,0.0483,0.0511,0.0527,0.0545,0.0569,0.0583,0.06,0.0608,0.0626,0.0635,0.0641,0.066,0.062,0.0677,0.0684,0.069,0.0649,0.0647,0.065,0.0616,0.0616,0.0616,0,0,0.0424,0.043,0.0433,0.046,0.0482,0.0499,0.0524,0.0556,0.0585,0.058,0.0627,0.0639,0.0636,0.0667,0.0679,0.0658,0.068,0.069,0.0696,0.065,0.0647,0.0651,0.0654,0.0616,0.0616,0.0616,0,0,0.0419,0.0435,0.044,0.0455,0.0486,0.0502,0.0517,0.0562,0.0607,0.0641,0.0654,0.0677,0.07,0.0708,0.0713,0.0749,0.0721,0.0761,0.0756,0.0758,0.0761,0.0763,0.0729,0.0727,0.0759,0.0759,0.0759,0,0.0419,0.0409,0.0448,0.0455,0.0454,0.0505,0.051,0.057,0.0615,0.0625,0.0662,0.068,0.0713,0.0723,0.0755,0.0767,0.0744,0.0742,0.0768,0.0769,0.077,0.0734,0.0731,0.0764,0.0763,0.0763,0.0762,0,0.0419,0.0402,0.041,0.042,0.0446,0.0448,0.0525,0.0568,0.0617,0.0636,0.0679,0.0727,0.0737,0.0761,0.0782,0.0799,0.0776,0.079,0.0756,0.0779,0.074,0.0735,0.0771,0.0769,0.0768,0.0766,0,0,0.0424,0.0404,0.0406,0.0383,0.0412,0.0434,0.0494,0.0526,0.0542,0.0615,0.0631,0.0702,0.0734,0.074,0.0786,0.0776,0.0809,0.0791,0.0789,0.0767,0.0785,0.0821,0.0818,0.0842,0.0841,0.0841,0.0762,0,0.0396,0.0356,0.0376,0.0351,0.0329,0.0383,0.0423,0.047,0.0522,0.0562,0.0629,0.0667,0.0737,0.077,0.0792,0.0795,0.0796,0.0826,0.0752,0.0748,0.0788,0.0814,0.0839,0.0758,0.0757,0.0756,0.0755,0,0.0379,0.034,0.0293,0.0265,0.0275,0.0289,0.032,0.0373,0.0438,0.0489,0.0541,0.0603,0.0657,0.0722,0.0737,0.0757,0.0786,0.0768,0.0766,0.0747,0.0775,0.0722,0.0745,0.0745,0.0746,0.0747,0.0748,0,0.0308,0.0284,0.0224,0.0214,0.0214,0.0234,0.0267,0.032,0.0379,0.0454,0.0479,0.0542,0.0614,0.0634,0.0707,0.0722,0.0679,0.0704,0.0737,0.0738,0.0684,0.0683,0.0696,0.0696,0.0696,0.0697,0.0697,0,0.0234,0.0205,0.019,0.0149,0.0148,0.0181,0.0207,0.0257,0.0325,0.0374,0.0466,0.0525,0.0601,0.063,0.0664,0.0696,0.0677,0.0715,0.0724,0.0728,0.0733,0.0681,0.068,0.0694,0.0694,0.0695,0.0695,0,0.0204,0.0153,0.0126,0.011,0.0101,0.0147,0.0216,0.0241,0.0294,0.0374,0.0414,0.0512,0.0574,0.0611,0.0627,0.0655,0.065,0.0669,0.064,0.0652,0.0704,0.0709,0.0664,0.0665,0.0666,0.0666,0.0667,0,0.0173,0.0115,0.012,0.0114,0.0123,0.0164,0.0177,0.0246,0.0296,0.0378,0.0422,0.0494,0.058,0.0609,0.0641,0.0661,0.069,0.0644,0.0696,0.0688,0.0702,0.0706,0.071,0.0667,0.0668,0.0668,0.0668,0,0.0113,0.0132,0.013,0.0108,0.0126,0.018,0.0215,0.0258,0.0348,0.0374,0.0479,0.0535,0.06,0.0651,0.0678,0.0695,0.0637,0.065,0.065,0.0698,0.0692,0.0706,0.0709,0.067,0.067,0.067,0.0669,0,0.01,0.0125,0.0081,0.0126,0.0148,0.0196,0.0231,0.0297,0.0359,0.0463,0.0492,0.0574,0.0622,0.0668,0.0683,0.0715,0.0726,0.0694,0.0691,0.0689,0.0741,0.0739,0.0726,0,0,0,0,0,0.0076,0.0065,0.0057,0.0108,0.0173,0.019,0.0235,0.0277,0.0359,0.0451,0.0487,0.0573,0.0648,0.0666,0.0714,0.067,0.0696,0.0714,0.065,0.0682,0.0679,0.0743,0,0,0,0,0,0,0.001,0.0007,0.0035,0.0102,0.0157,0.0211,0.027,0.0321,0.039,0.0466,0.0527,0.0556,0.0641,0.0651,0.0715,0.0718,0.0671,0.0755,0.0754,0.0683,0.0681,0.0679,0.0744,0,0,0,0,0]},{"header":{"parameterUnit":"m.s-1","parameterCategory":2,"la1":30.2991,"la2":30.254,"lo1":-89.0895,"lo2":-89.0444,"dy":0.0017,"dx":0.0017,"nx":28,"ny":28,"refTime":"2024-09-27T21:00:00:Z","depth":"4","parameterNumber":3,"parameterNumberName":"V-component_of_CURRENTS"},"data":[0,0,0,0,0,0,0,0,0,0,0,0,0,0,0,0,0,0,0,0,0,0,0,0,0,0,0,0,0,0,0,0,0,0,0,0,0,0,0,0,0,0,0,0,0,0,0,0,0,0,0,0,0,0,0,0,0,0,-0.0217,-0.0217,0,-0.0263,-0.0264,-0.0264,-0.0283,-0.0283,-0.0283,-0.0283,-0.0343,-0.0345,-0.0346,0,0,0,0,0,0,0,0,0,0,0,0,0,-0.0131,-0.0133,-0.0216,-0.0217,-0.0218,-0.0263,-0.0264,-0.0264,-0.0283,-0.0283,-0.0283,-0.0283,-0.0342,-0.0344,-0.0346,0,0,0,0,0,0,0,0,0,0,0,0,0,-0.0172,-0.0133,-0.0216,-0.0233,-0.0235,-0.0263,-0.0264,-0.0265,-0.0283,-0.0283,-0.0283,-0.0283,-0.0342,-0.0344,-0.0347,-0.0365,0,0,-0.0355,-0.0356,0,0,0,0,0,0,0,0,-0.017,-0.0175,-0.023,-0.0232,-0.0234,-0.0267,-0.0256,-0.0299,-0.0283,-0.0265,-0.0283,-0.0283,-0.0319,-0.0323,-0.0332,-0.0368,-0.0371,-0.0355,-0.0356,-0.0357,-0.0358,0,0,0,0,0,0,0,-0.0167,-0.0173,-0.0235,-0.023,-0.0233,-0.0233,-0.0239,-0.0264,-0.0292,-0.0266,-0.0268,-0.0273,-0.032,-0.033,-0.0334,-0.0372,-0.0355,-0.0357,-0.0358,-0.0359,-0.0438,-0.0439,0,0,0,0,0,0,-0.0163,-0.0171,-0.0233,-0.0236,-0.0201,-0.0235,-0.0242,-0.0257,-0.0292,-0.0297,-0.0273,-0.0274,-0.0326,-0.0331,-0.0336,-0.0377,-0.0357,-0.036,-0.0361,-0.0438,-0.0439,-0.0439,0,0,0,0,0,0,-0.0161,-0.0168,-0.0232,-0.0204,-0.0212,-0.0237,-0.0254,-0.0258,-0.0269,-0.0297,-0.0302,-0.0281,-0.0326,-0.0333,-0.0362,-0.0378,-0.0361,-0.0363,-0.0437,-0.0438,-0.0439,-0.0447,0,0,0,0,0,0,-0.0158,-0.0167,-0.0181,-0.0204,-0.0213,-0.0256,-0.0254,-0.0259,-0.0273,-0.0274,-0.0305,-0.031,-0.0326,-0.0358,-0.0365,-0.0382,-0.0365,-0.0436,-0.0438,-0.0439,-0.0446,-0.0448,-0.045,0,0,0,0,0,-0.0155,-0.0178,-0.0182,-0.0189,-0.023,-0.0256,-0.0262,-0.0278,-0.0273,-0.0285,-0.0302,-0.031,-0.037,-0.0361,-0.0368,-0.0386,-0.0436,-0.0437,-0.0438,-0.0445,-0.0448,-0.045,0,0,0,0,0,0,-0.0155,-0.0183,-0.0187,-0.0219,-0.0237,-0.026,-0.0274,-0.0278,-0.03,-0.0299,-0.0319,-0.0326,-0.0356,-0.037,-0.036,-0.0411,-0.0403,-0.0406,-0.0406,-0.0409,-0.0411,-0.0446,-0.0367,0,0,0,0,0,-0.0159,-0.0186,-0.0203,-0.0233,-0.0237,-0.0253,-0.0265,-0.0272,-0.0292,-0.0301,-0.0321,-0.0343,-0.0368,-0.0386,-0.0407,-0.0439,-0.0468,-0.0455,-0.0457,-0.0458,-0.0491,-0.0542,-0.0552,-0.0443,-0.0443,-0.0443,0,0,-0.0164,-0.0189,-0.0201,-0.0235,-0.0248,-0.0263,-0.026,-0.0279,-0.0298,-0.0305,-0.0338,-0.0349,-0.0376,-0.0409,-0.0425,-0.0424,-0.0499,-0.046,-0.0461,-0.0494,-0.0545,-0.0556,-0.0565,-0.0444,-0.0444,-0.0444,0,0,-0.0178,-0.021,-0.022,-0.0244,-0.0265,-0.0277,-0.028,-0.0297,-0.031,-0.0337,-0.0346,-0.0375,-0.0405,-0.0438,-0.0456,-0.0484,-0.0502,-0.0478,-0.0525,-0.0573,-0.0583,-0.0592,-0.062,-0.0631,-0.0484,-0.0484,-0.0484,0,-0.0178,-0.0208,-0.0228,-0.0249,-0.0273,-0.0281,-0.0295,-0.0314,-0.0341,-0.0369,-0.0348,-0.0417,-0.0427,-0.0493,-0.0499,-0.0492,-0.0514,-0.0511,-0.0577,-0.0587,-0.0596,-0.0623,-0.0636,-0.0485,-0.0485,-0.0485,-0.0485,0,-0.019,-0.0224,-0.0238,-0.0268,-0.0294,-0.0317,-0.0339,-0.0363,-0.037,-0.0399,-0.0453,-0.0469,-0.0516,-0.0515,-0.0517,-0.059,-0.058,-0.0567,-0.0572,-0.0608,-0.0633,-0.0646,-0.0486,-0.0486,-0.0485,-0.0485,0,0,-0.0156,-0.0227,-0.023,-0.0255,-0.031,-0.0325,-0.0372,-0.042,-0.0458,-0.0484,-0.054,-0.058,-0.0593,-0.0615,-0.0616,-0.0663,-0.0725,-0.0646,-0.0648,-0.0678,-0.0822,-0.0686,-0.0687,-0.072,-0.0723,-0.0725,-0.0805,0,-0.0152,-0.0194,-0.0234,-0.028,-0.0304,-0.0355,-0.0399,-0.0452,-0.0495,-0.0551,-0.0594,-0.0634,-0.0628,-0.0635,-0.0689,-0.0718,-0.0765,-0.0704,-0.0783,-0.0785,-0.0663,-0.07,-0.0734,-0.0815,-0.0818,-0.082,-0.0821,0,-0.0139,-0.0176,-0.0214,-0.0299,-0.0309,-0.0344,-0.0429,-0.0468,-0.0568,-0.0599,-0.0673,-0.0696,-0.0776,-0.0739,-0.0853,-0.0813,-0.0829,-0.0849,-0.0851,-0.0742,-0.0675,-0.0778,-0.0846,-0.0844,-0.0842,-0.084,-0.0839,0,-0.0105,-0.0164,-0.0196,-0.0227,-0.0312,-0.0349,-0.0395,-0.0493,-0.0523,-0.0632,-0.0657,-0.077,-0.0783,-0.0866,-0.087,-0.0882,-0.0962,-0.098,-0.0883,-0.0873,-0.0969,-0.0958,-0.1066,-0.1066,-0.1065,-0.1065,-0.1065,0,-0.0111,-0.0137,-0.0182,-0.0217,-0.0252,-0.0322,-0.0378,-0.045,-0.0529,-0.056,-0.0669,-0.0685,-0.0812,-0.0849,-0.0898,-0.0904,-0.0981,-0.0912,-0.0893,-0.0964,-0.0953,-0.0976,-0.0965,-0.1068,-0.1067,-0.1067,-0.1066,0,-0.0092,-0.0126,-0.0157,-0.0226,-0.0249,-0.027,-0.0343,-0.0385,-0.0464,-0.0505,-0.0525,-0.0631,-0.0682,-0.0764,-0.0864,-0.0891,-0.0936,-0.0903,-0.0948,-0.0926,-0.0829,-0.0818,-0.0892,-0.0888,-0.0885,-0.0882,-0.088,0,-0.0096,-0.0116,-0.0145,-0.0166,-0.0205,-0.0241,-0.0278,-0.0346,-0.0374,-0.0441,-0.0447,-0.0505,-0.0562,-0.061,-0.0716,-0.0813,-0.0797,-0.0847,-0.0895,-0.0842,-0.0817,-0.081,-0.0803,-0.0874,-0.0873,-0.0872,-0.0872,0,-0.0112,-0.0106,-0.0122,-0.0156,-0.0183,-0.0204,-0.0253,-0.0233,-0.0286,-0.0343,-0.0342,-0.0395,-0.0433,-0.0535,-0.0565,-0.064,-0.0856,-0.0814,-0.0824,-0.087,-0.0822,-0.0798,-0.0795,-0.086,-0.0862,-0.0863,-0.0863,0,-0.0112,-0.0095,-0.0116,-0.0143,-0.0164,-0.0176,-0.0191,-0.0197,-0.0201,-0.0243,-0.022,-0.03,-0.036,-0.0438,-0.0475,-0.0524,-0.0583,-0.0643,-0.0663,-0.0678,-0.0576,-0.0481,-0.0416,0,0,0,0,0,-0.0121,-0.0113,-0.0132,-0.0136,-0.0149,-0.0157,-0.0188,-0.0192,-0.018,-0.015,-0.0179,-0.0197,-0.0273,-0.0333,-0.0357,-0.0456,-0.0615,-0.0492,-0.0699,-0.0796,-0.0809,-0.0713,0,0,0,0,0,0,-0.0133,-0.0132,-0.012,-0.013,-0.0114,-0.0121,-0.0113,-0.0114,-0.0095,-0.0097,-0.0127,-0.0178,-0.0252,-0.0217,-0.0336,-0.0362,-0.0497,-0.0542,-0.0543,-0.0788,-0.08,-0.0811,-0.0716,0,0,0,0,0]}]]